Weather History for Beaufort MCAS, SC

Change the Weather History Date:

Sunday, April 6, 2014

  Actual Average Record
Temperature  
Mean Temperature 64 °F -  
Max Temperature 69 °F 72 °F 91 °F (1967)
Min Temperature 59 °F 51 °F 31 °F (1944)
Degree Days  
Heating Degree Days 2    
Growing Degree Days 14 (Base 50)    
Moisture  
Dew Point 57 °F    
Average Humidity 85    
Maximum Humidity 93    
Minimum Humidity 78    
Precipitation  
Precipitation 0.23 in - - ()
Sea Level Pressure  
Sea Level Pressure 30.04 in    
Wind  
Wind Speed 7 mph (East)    
Max Wind Speed 14 mph    
Max Gust Speed 21 mph    
Visibility 8 miles    
Events Rain    
Averages and records for this station are not official NWS values.
T = Trace of Precipitation, MM = Missing Value Source: NWS Daily Summary

Daily Weather History Graph

Daily Weather History Graph

Search for Another Location

Airport:

Trip Planner

Search our weather history database for the weather conditions in past years. The results will help you decide how hot, cold, wet, or windy it might be!

Date:

Astronomy

Apr. 06, 2014 Rise Set
Actual Time 7:04 AM EDT 7:46 PM EDT
Civil Twilight 6:39 AM EDT 8:11 PM EDT
Nautical Twilight 6:10 AM EDT 8:40 PM EDT
Astronomical Twilight 5:40 AM EDT 9:10 PM EDT
Moon 12:14 PM EDT (4/6) 1:30 AM EDT (4/6)
Length of Visible Light 13h 31m
Length of Day
12h 41m
Waxing Crescent, 43% of the Moon is Illuminated
Apr 6
Waxing Crescent
Apr 7
First Quarter
Apr 15
Full
Apr 22
Last Quarter
Apr 29
New

Hourly Weather History & Observations

Time (EDT) Temp. Dew Point Humidity Pressure Visibility Wind Dir Wind Speed Gust Speed Precip Events Conditions
12:56 AM 66.9 °F 61.0 °F 81% 30.00 in 10.0 mi West 5.8 mph - N/A   Mostly Cloudy
1:56 AM 68.0 °F 61.0 °F 78% 29.99 in 10.0 mi WNW 5.8 mph - N/A   Scattered Clouds
2:56 AM 68.0 °F 61.0 °F 78% 29.98 in 10.0 mi WNW 5.8 mph - N/A   Scattered Clouds
3:56 AM 66.9 °F 61.0 °F 81% 29.98 in 10.0 mi West 4.6 mph - N/A   Mostly Cloudy
4:56 AM 66.9 °F 61.0 °F 81% 29.97 in 10.0 mi North 3.5 mph - N/A   Mostly Cloudy
5:56 AM 64.9 °F 60.1 °F 84% 29.98 in 10.0 mi North 4.6 mph - N/A   Clear
6:56 AM 64.9 °F 61.0 °F 87% 30.00 in 10.0 mi NE 6.9 mph - N/A   Mostly Cloudy
7:56 AM 64.9 °F 57.9 °F 78% 30.01 in 10.0 mi ESE 5.8 mph - N/A   Mostly Cloudy
8:09 AM 64.9 °F 57.9 °F 78% 30.02 in 10.0 mi East 5.8 mph - N/A   Overcast
8:22 AM 64.0 °F 59.0 °F 84% 30.02 in 10.0 mi SE 12.7 mph - N/A   Mostly Cloudy
8:42 AM 63.0 °F 60.1 °F 90% 30.02 in 7.0 mi SE 13.8 mph - 0.00 in   Overcast
8:56 AM 63.0 °F 59.0 °F 87% 30.02 in 7.0 mi SE 6.9 mph 20.7 mph 0.00 in   Overcast
9:29 AM 63.0 °F 59.0 °F 87% 30.04 in 7.0 mi East 10.4 mph - 0.00 in Rain Light Rain
9:56 AM 62.1 °F 59.0 °F 90% 30.05 in 6.0 mi East 5.8 mph - 0.01 in Rain Light Rain
10:56 AM 62.1 °F 57.0 °F 84% 30.06 in 6.0 mi East 11.5 mph - 0.01 in Rain Light Rain
11:23 AM 62.1 °F 57.0 °F 84% 30.07 in 8.0 mi ESE 8.1 mph - 0.00 in   Overcast
11:56 AM 62.1 °F 57.0 °F 84% 30.09 in 9.0 mi ENE 9.2 mph - 0.00 in   Overcast
12:43 PM 63.0 °F 57.0 °F 81% 30.09 in 10.0 mi East 8.1 mph - 0.01 in   Overcast
12:56 PM 63.0 °F 57.0 °F 81% 30.10 in 9.0 mi ENE 8.1 mph - 0.01 in   Overcast
1:52 PM 60.8 °F 57.2 °F 88% 30.09 in 4.0 mi ENE 6.9 mph - 0.05 in Rain Rain
1:56 PM 61.0 °F 55.9 °F 83% 30.10 in 4.0 mi ENE 5.8 mph - 0.05 in Rain Rain
2:25 PM 61.0 °F 57.0 °F 87% 30.08 in 6.0 mi ESE 4.6 mph - 0.02 in Rain Light Rain
2:56 PM 61.0 °F 57.9 °F 90% 30.08 in 7.0 mi SE 4.6 mph - 0.03 in Rain Light Rain
3:56 PM 61.0 °F 57.0 °F 87% 30.07 in 5.0 mi ENE 3.5 mph - 0.05 in Rain Light Rain
4:06 PM 61.0 °F 57.0 °F 87% 30.07 in 5.0 mi ENE 5.8 mph - 0.01 in Rain Light Rain
4:16 PM 61.0 °F 57.9 °F 90% 30.06 in 5.0 mi NNE 5.8 mph - 0.01 in Rain Light Rain
4:56 PM 61.0 °F 57.9 °F 90% 30.07 in 5.0 mi SSE 3.5 mph - 0.03 in Rain Light Rain
5:03 PM 61.0 °F 57.9 °F 90% 30.06 in 4.0 mi SSE 5.8 mph - 0.00 in Rain Light Rain
5:11 PM 61.0 °F 57.9 °F 90% 30.06 in 5.0 mi SE 5.8 mph - 0.01 in Rain Light Rain
5:21 PM 61.0 °F 57.9 °F 90% 30.06 in 5.0 mi SE 6.9 mph - 0.01 in Rain Light Rain
5:56 PM 60.1 °F 57.9 °F 93% 30.07 in 6.0 mi SE 5.8 mph - 0.02 in Rain Light Rain
6:44 PM 60.1 °F 57.0 °F 90% 30.02 in 7.0 mi ESE 9.2 mph - 0.02 in Rain Light Rain
6:56 PM 60.1 °F 57.0 °F 90% 30.02 in 6.0 mi ESE 8.1 mph - 0.02 in   Overcast
7:06 PM 60.1 °F 57.0 °F 90% 30.02 in 8.0 mi ESE 10.4 mph - N/A   Mostly Cloudy
7:18 PM 60.1 °F 57.0 °F 90% 30.01 in 8.0 mi ESE 9.2 mph - N/A   Overcast
7:56 PM 59.0 °F 55.0 °F 87% 30.03 in 10.0 mi East 6.9 mph - N/A   Scattered Clouds
8:14 PM 59.0 °F 55.0 °F 87% 30.02 in 10.0 mi ENE 6.9 mph - N/A   Mostly Cloudy
8:56 PM 59.0 °F 54.0 °F 83% 30.03 in 10.0 mi ENE 8.1 mph - N/A   Overcast
9:56 PM 59.0 °F 53.1 °F 81% 30.04 in 10.0 mi ESE 9.2 mph - N/A   Overcast
10:56 PM 59.0 °F 53.1 °F 81% 30.02 in 10.0 mi SE 6.9 mph - N/A   Mostly Cloudy
11:12 PM 59.0 °F 53.1 °F 81% 30.01 in 10.0 mi ESE 5.8 mph - N/A   Partly Cloudy
11:38 PM 59.0 °F 53.1 °F 81% 30.00 in 10.0 mi ESE 6.9 mph - N/A   Mostly Cloudy
11:52 PM 59.0 °F 53.6 °F 82% 30.01 in 10.0 mi ESE 5.8 mph - N/A   Overcast
11:56 PM 59.0 °F 54.0 °F 83% 30.01 in 10.0 mi ESE 5.8 mph - N/A   Overcast